GW1859 Weather Reports


Display with metric or nautical units.
time (UTC)temp
F
wind
direction
speed
MPH
gust
MPH
rain 1hr
in
rain 24hr
in
rain mn
in
humidity
%
barometer
mb
20260510221115 70 120 0.0 0.0 0.00 0.00 0.00 36 1022.8
20260510220613 71 128 0.0 0.0 0.00 0.00 0.00 35 1023.1
20260510220108 71 121 0.0 1.0 0.00 0.00 0.00 38 1022.9
20260510215606 72 124 0.0 0.0 0.00 0.00 0.00 35 1023.0
20260510215104 72 125 0.0 0.0 0.00 0.00 0.00 38 1023.1
20260510214600 72 126 0.0 0.0 0.00 0.00 0.00 37 1023.0
20260510214056 73 129 0.0 0.0 0.00 0.00 0.00 35 1023.3
20260510213554 74 41 1.0 2.0 0.00 0.00 0.00 33 1023.0
20260510213049 74 134 0.0 0.0 0.00 0.00 0.00 35 1023.0
20260510212546 74 130 0.0 0.0 0.00 0.00 0.00 37 1022.9
20260510212043 74 124 1.0 1.0 0.00 0.00 0.00 37 1023.3
20260510211535 73 128 0.0 0.0 0.00 0.00 0.00 35 1023.1
20260510211035 72 123 0.0 0.0 0.00 0.00 0.00 37 1023.3
20260510210531 72 125 0.0 0.0 0.00 0.00 0.00 36 1023.2
20260510210027 72 121 0.0 0.0 0.00 0.00 0.00 34 1023.5
20260510205526 73 118 1.0 1.0 0.00 0.00 0.00 34 1023.3
20260510205022 74 119 1.0 1.0 0.00 0.00 0.00 37 1023.4
20260510204518 74 137 0.0 0.0 0.00 0.00 0.00 37 1023.4
20260510204015 74 17 3.0 5.0 0.00 0.00 0.00 35 1023.2
20260510203512 75 125 0.0 0.0 0.00 0.00 0.00 37 1023.1
20260510203009 76 125 0.0 0.0 0.00 0.00 0.00 35 1023.1
20260510202502 76 118 1.0 2.0 0.00 0.00 0.00 37 1023.3
20260510201959 75 132 0.0 0.0 0.00 0.00 0.00 37 1022.9
20260510201457 75 188 2.0 2.0 0.00 0.00 0.00 37 1023.2
20260510200953 74 130 0.0 0.0 0.00 0.00 0.00 39 1023.1
20260510200448 74 97 1.0 1.0 0.00 0.00 0.00 40 1022.9
20260510195946 72 120 0.0 1.0 0.00 0.00 0.00 41 1022.9
20260510195445 72 126 1.0 1.0 0.00 0.00 0.00 42 1023.1
20260510194945 72 112 0.0 0.0 0.00 0.00 0.00 42 1023.2
20260510194441 74 109 1.0 2.0 0.00 0.00 0.00 40 1023.0
20260510193936 73 131 0.0 0.0 0.00 0.00 0.00 41 1023.2
20260510193432 74 127 0.0 0.0 0.00 0.00 0.00 41 1023.3
20260510192928 73 121 2.0 3.0 0.00 0.00 0.00 44 1023.0
20260510192423 73 128 0.0 0.0 0.00 0.00 0.00 39 1023.4
20260510191919 73 108 1.0 1.0 0.00 0.00 0.00 42 1023.4
20260510191415 72 130 1.0 1.0 0.00 0.00 0.00 39 1023.4
20260510190913 71 185 1.0 2.0 0.00 0.00 0.00 43 1023.3
20260510190410 73 132 1.0 2.0 0.00 0.00 0.00 48 1023.4
20260510185906 71 126 0.0 0.0 0.00 0.00 0.00 49 1023.5
20260510185404 70 99 3.0 3.0 0.00 0.00 0.00 45 1023.4
20260510184901 69 128 0.0 0.0 0.00 0.00 0.00 47 1023.3
20260510184358 69 117 1.0 1.0 0.00 0.00 0.00 48 1023.5
20260510183858 67 140 0.0 0.0 0.00 0.00 0.00 53 1023.4
20260510183355 68 111 1.0 2.0 0.00 0.00 0.00 47 1023.2
20260510182849 68 49 0.0 0.0 0.00 0.00 0.00 51 1023.6
20260510182346 66 163 1.0 2.0 0.00 0.00 0.00 48 1023.6
20260510181842 65 145 0.0 0.0 0.00 0.00 0.00 56 1023.4
20260510181340 65 132 0.0 0.0 0.00 0.00 0.00 56 1023.7
20260510180836 64 109 1.0 2.0 0.00 0.00 0.00 52 1023.4
20260510180333 64 132 0.0 0.0 0.00 0.00 0.00 58 1023.3
20260510175830 63 132 0.0 0.0 0.00 0.00 0.00 66 1023.4
20260510175325 63 126 1.0 3.0 0.00 0.00 0.00 61 1023.3
20260510174822 63 125 0.0 0.0 0.00 0.00 0.00 58 1023.3
20260510174320 63 130 0.0 0.0 0.00 0.00 0.00 61 1023.3
20260510173816 63 126 0.0 0.0 0.00 0.00 0.00 67 1023.3
20260510173312 62 135 0.0 0.0 0.00 0.00 0.00 64 1023.5
20260510172808 61 124 0.0 0.0 0.00 0.00 0.00 63 1023.6
20260510172306 61 115 1.0 1.0 0.00 0.00 0.00 64 1023.6
20260510171801 61 122 0.0 0.0 0.00 0.00 0.00 70 1023.5
20260510171258 60 118 0.0 0.0 0.00 0.00 0.00 66 1023.7
20260510170755 60 27 4.0 6.0 0.00 0.00 0.00 65 1023.6
20260510170251 59 116 0.0 0.0 0.00 0.00 0.00 75 1023.4
20260510165746 59 164 1.0 3.0 0.00 0.00 0.00 74 1023.6
20260510165243 58 145 1.0 1.0 0.00 0.00 0.00 77 1023.6
20260510164740 57 123 0.0 0.0 0.00 0.00 0.00 81 1023.7
20260510164237 57 122 0.0 0.0 0.00 0.00 0.00 79 1023.7
20260510163732 56 128 0.0 0.0 0.00 0.00 0.00 83 1023.6
20260510163228 56 119 0.0 0.0 0.00 0.00 0.00 84 1023.7
20260510162728 55 101 1.0 2.0 0.00 0.00 0.00 85 1023.6
20260510162225 54 119 0.0 0.0 0.00 0.00 0.00 88 1023.5
20260510161721 53 120 0.0 0.0 0.00 0.00 0.00 90 1023.5
20260510161217 53 109 0.0 0.0 0.00 0.00 0.00 90 1023.7
20260510160715 52 124 0.0 0.0 0.00 0.00 0.00 91 1023.7
20260510160210 52 123 0.0 0.0 0.00 0.00 0.00 92 1023.4
20260510155706 52 46 0.0 1.0 0.00 0.00 0.00 91 1023.8
20260510155202 52 356 0.0 1.0 0.00 0.00 0.00 92 1023.7
20260510154657 52 356 0.0 1.0 0.00 0.00 0.00 92 1023.3
20260510154153 52 356 0.0 1.0 0.00 0.00 0.00 92 1023.2
20260510153648 52 112 0.0 0.0 0.00 0.00 0.00 93 1022.7
20260510153146 52 126 0.0 0.0 0.00 0.00 0.00 93 1022.6
20260510152642 52 124 0.0 0.0 0.00 0.00 0.00 93 1022.5
20260510152138 52 124 0.0 0.0 0.00 0.00 0.00 93 1022.5
20260510151635 52 123 0.0 0.0 0.00 0.00 0.00 92 1022.8
20260510151133 52 127 0.0 0.0 0.00 0.00 0.00 92 1023.0
20260510150628 52 122 0.0 0.0 0.00 0.00 0.00 93 1023.0
20260510150124 52 122 0.0 0.0 0.00 0.00 0.00 93 1022.7
20260510145621 52 124 0.0 0.0 0.00 0.00 0.00 92 1022.8
20260510145117 52 124 0.0 0.0 0.00 0.00 0.00 92 1022.8
20260510144613 52 124 0.0 0.0 0.00 0.00 0.00 92 1022.7
20260510144109 52 116 0.0 0.0 0.00 0.00 0.00 92 1022.5
20260510143605 52 116 0.0 0.0 0.00 0.00 0.00 92 1022.7
20260510143101 52 123 0.0 0.0 0.00 0.00 0.00 92 1022.8
20260510142558 52 117 0.0 0.0 0.00 0.00 0.00 92 1023.0
20260510142055 52 92 1.0 3.0 0.00 0.00 0.00 93 1023.1
20260510141552 52 125 0.0 0.0 0.00 0.00 0.00 92 1023.2
20260510141050 52 125 0.0 0.0 0.00 0.00 0.00 92 1023.2
20260510140546 52 125 0.0 0.0 0.00 0.00 0.00 92 1023.2
20260510140045 52 123 0.0 0.0 0.00 0.00 0.00 92 1022.8
20260510135541 52 121 0.0 0.0 0.00 0.00 0.00 92 1022.8
20260510135038 52 118 0.0 0.0 0.00 0.00 0.00 92 1022.7
20260510134535 52 123 0.0 0.0 0.00 0.00 0.00 92 1022.6
20260510134032 52 110 0.0 0.0 0.00 0.00 0.00 92 1022.9
20260510133527 52 120 0.0 0.0 0.00 0.00 0.00 92 1022.8
20260510133024 52 124 0.0 0.0 0.00 0.00 0.00 92 1023.2
20260510132521 52 126 0.0 0.0 0.00 0.00 0.00 91 1023.1
20260510132017 53 120 0.0 0.0 0.00 0.00 0.00 91 1023.2
20260510131515 53 121 0.0 0.0 0.00 0.00 0.00 90 1023.1
20260510131012 53 121 0.0 0.0 0.00 0.00 0.00 90 1022.6
20260510130508 53 118 0.0 0.0 0.00 0.00 0.00 89 1022.2
20260510130006 54 109 1.0 2.0 0.00 0.00 0.00 88 1022.4
20260510125502 54 130 0.0 0.0 0.00 0.00 0.00 87 1022.3
20260510124959 55 117 0.0 0.0 0.00 0.00 0.00 86 1022.4
20260510124455 56 129 0.0 0.0 0.00 0.00 0.00 83 1021.8
20260510123952 57 124 0.0 0.0 0.00 0.00 0.00 82 1021.6
20260510123447 57 123 0.0 0.0 0.00 0.00 0.00 79 1021.5
20260510122943 58 124 0.0 0.0 0.00 0.00 0.00 76 1021.4
20260510122439 58 123 0.0 0.0 0.00 0.00 0.00 72 1021.3
20260510121935 59 122 0.0 0.0 0.00 0.00 0.00 70 1021.2
20260510121433 59 123 0.0 0.0 0.00 0.00 0.00 67 1021.2
20260510120930 59 113 0.0 0.0 0.00 0.00 0.00 66 1020.8
20260510120427 59 116 0.0 1.0 0.00 0.00 0.00 66 1020.4
20260510115923 59 121 0.0 0.0 0.00 0.00 0.00 67 1020.1
20260510115421 59 118 0.0 0.0 0.00 0.00 0.00 67 1019.7
20260510114916 59 127 0.0 0.0 0.00 0.00 0.00 68 1019.3
20260510114413 59 126 0.0 0.0 0.00 0.00 0.00 67 1018.8
20260510113908 59 121 0.0 0.0 0.00 0.00 0.00 67 1018.9
20260510113404 59 115 0.0 1.0 0.00 0.00 0.00 67 1018.9
20260510112902 60 32 2.0 3.0 0.00 0.00 0.00 67 1018.6
20260510112359 60 352 3.0 3.0 0.00 0.00 0.00 66 1018.5
20260510111855 60 114 0.0 0.0 0.00 0.00 0.00 67 1018.0
20260510111351 60 104 0.0 0.0 0.00 0.00 0.00 67 1017.8
20260510110846 60 72 1.0 2.0 0.00 0.00 0.00 66 1017.9
20260510110343 60 97 2.0 3.0 0.00 0.00 0.00 66 1017.9
20260510105840 60 121 0.0 0.0 0.00 0.00 0.00 67 1017.6
20260510105339 60 116 1.0 1.0 0.00 0.00 0.00 67 1017.2
20260510104835 60 124 0.0 0.0 0.00 0.00 0.00 66 1017.2
20260510104333 60 118 0.0 0.0 0.00 0.00 0.00 65 1017.5
20260510103829 60 122 0.0 0.0 0.00 0.00 0.00 65 1017.6
20260510103326 60 125 0.0 0.0 0.00 0.00 0.00 66 1017.8
20260510102821 61 105 0.0 0.0 0.00 0.00 0.00 65 1017.5
20260510102317 61 115 0.0 0.0 0.00 0.00 0.00 65 1017.3
20260510101815 61 119 0.0 0.0 0.00 0.00 0.00 64 1017.3
20260510101313 61 102 0.0 1.0 0.00 0.00 0.00 65 1017.2
20260510100809 61 118 0.0 0.0 0.00 0.00 0.00 65 1017.2
20260510100307 60 109 0.0 1.0 0.00 0.00 0.00 65 1017.0
20260510095802 60 122 0.0 0.0 0.00 0.00 0.00 65 1016.8
20260510095257 60 118 0.0 0.0 0.00 0.00 0.00 66 1017.1
20260510094756 60 124 0.0 0.0 0.00 0.00 0.00 66 1016.7
20260510094252 60 119 0.0 0.0 0.00 0.00 0.00 67 1017.1
20260510093748 60 122 0.0 0.0 0.00 0.00 0.00 67 1016.8
20260510093245 60 117 1.0 1.0 0.00 0.00 0.00 67 1016.5
20260510092741 60 112 1.0 2.0 0.00 0.00 0.00 67 1016.3
20260510092237 60 126 0.0 0.0 0.00 0.00 0.00 67 1016.3
20260510091733 60 124 0.0 0.0 0.00 0.00 0.00 68 1016.3
20260510091230 60 121 0.0 0.0 0.00 0.00 0.00 67 1016.3
20260510090726 60 112 0.0 0.0 0.00 0.00 0.00 68 1016.1
20260510090224 60 125 0.0 0.0 0.00 0.00 0.00 69 1016.3
20260510085719 60 121 0.0 0.0 0.00 0.00 0.00 68 1016.2
20260510085214 60 117 0.0 0.0 0.00 0.00 0.00 68 1015.9
20260510084710 60 121 0.0 0.0 0.00 0.00 0.00 68 1016.2
20260510084208 60 105 0.0 0.0 0.00 0.00 0.00 68 1016.1
20260510083704 61 122 0.0 0.0 0.00 0.00 0.00 69 1016.1
20260510083201 61 120 0.0 0.0 0.00 0.00 0.00 69 1016.1
20260510082656 61 122 0.0 0.0 0.00 0.00 0.00 70 1016.0
20260510082152 60 117 0.0 1.0 0.00 0.00 0.00 71 1016.0
20260510081647 60 127 0.0 0.0 0.00 0.00 0.00 71 1016.1
20260510081143 60 120 0.0 0.0 0.00 0.00 0.00 72 1016.1
20260510080643 60 117 0.0 0.0 0.00 0.00 0.00 72 1016.1
20260510080140 59 127 0.0 0.0 0.00 0.00 0.00 73 1015.9
20260510075637 59 124 0.0 0.0 0.00 0.00 0.00 73 1016.0
20260510075134 60 122 0.0 0.0 0.00 0.00 0.00 73 1015.6
20260510074631 60 123 0.0 0.0 0.00 0.00 0.00 73 1015.6
20260510074126 60 123 0.0 0.0 0.00 0.00 0.00 73 1015.7
20260510073623 60 123 0.0 0.0 0.00 0.00 0.00 73 1015.5
20260510073120 60 123 0.0 0.0 0.00 0.00 0.00 72 1015.7
20260510072616 60 123 0.0 0.0 0.00 0.00 0.00 72 1015.5
20260510072113 60 123 0.0 0.0 0.00 0.00 0.00 72 1015.6
20260510071608 60 122 0.0 0.0 0.00 0.00 0.00 72 1015.5
20260510071107 61 119 0.0 0.0 0.00 0.00 0.00 72 1015.3
20260510070603 61 125 0.0 0.0 0.00 0.00 0.00 72 1015.2
20260510065557 61 125 0.0 0.0 0.00 0.00 0.00 72 1015.2
20260510065053 61 124 0.0 0.0 0.00 0.00 0.00 71 1015.2
20260510064549 61 125 0.0 0.0 0.00 0.00 0.00 72 1015.0
20260510064046 61 125 0.0 0.0 0.00 0.00 0.00 73 1015.1
20260510063543 60 124 0.0 0.0 0.00 0.00 0.00 73 1015.1
20260510063040 61 125 0.0 0.0 0.00 0.00 0.00 73 1015.0
20260510062536 61 125 0.0 0.0 0.00 0.00 0.00 73 1015.3
20260510062031 61 125 0.0 0.0 0.00 0.00 0.00 73 1015.1
20260510061528 61 125 0.0 0.0 0.00 0.00 0.00 72 1015.0
20260510061025 62 125 0.0 0.0 0.00 0.00 0.00 72 1015.0
20260510060521 62 125 0.0 0.0 0.00 0.00 0.00 71 1014.6
20260510060017 62 125 0.0 0.0 0.00 0.00 0.00 71 1014.3
20260510055514 63 125 0.0 0.0 0.00 0.00 0.00 70 1014.7
20260510055012 63 126 0.0 0.0 0.00 0.00 0.00 70 1014.2
20260510054507 63 118 0.0 0.0 0.00 0.00 0.00 69 1014.3
20260510054003 63 120 0.0 0.0 0.00 0.00 0.00 69 1014.2
20260510053457 63 125 0.0 0.0 0.00 0.00 0.00 69 1014.0
20260510052954 63 130 0.0 0.0 0.00 0.00 0.00 69 1014.1
20260510052450 64 132 0.0 0.0 0.00 0.00 0.00 69 1013.8
20260510051947 63 351 2.0 2.0 0.00 0.00 0.00 68 1013.7
20260510051442 62 130 0.0 0.0 0.00 0.00 0.00 70 1013.6
20260510050939 62 130 0.0 0.0 0.00 0.00 0.00 70 1014.0
20260510050436 61 124 0.0 0.0 0.00 0.00 0.00 72 1013.8
20260510045933 61 123 0.0 0.0 0.00 0.00 0.00 74 1013.8
20260510045431 61 123 0.0 0.0 0.00 0.00 0.00 76 1013.6
20260510044927 61 126 0.0 0.0 0.00 0.00 0.00 76 1013.4
20260510044424 61 127 0.0 0.0 0.00 0.00 0.00 76 1013.6
20260510043921 61 127 0.0 0.0 0.00 0.00 0.00 76 1013.4
20260510043417 61 127 0.0 0.0 0.00 0.00 0.00 75 1013.5
20260510042915 62 127 0.0 0.0 0.00 0.00 0.00 75 1013.4
20260510042411 62 127 0.0 0.0 0.00 0.00 0.00 75 1013.3
20260510041906 62 127 0.0 0.0 0.00 0.00 0.00 75 1013.7
20260510041404 62 127 0.0 0.0 0.00 0.00 0.00 76 1013.7
20260510040901 62 127 0.0 0.0 0.00 0.00 0.00 76 1014.1
20260510040358 62 127 0.0 0.0 0.00 0.00 0.00 76 1013.8
20260510035854 62 127 0.0 0.0 0.00 0.00 0.00 76 1013.7
20260510035350 62 126 0.0 0.0 0.00 0.00 0.00 76 1013.2
20260510034845 62 126 0.0 0.0 0.00 0.00 0.00 76 1013.2
20260510034343 63 126 0.0 0.0 0.00 0.00 0.00 74 1013.3
20260510033839 63 126 0.0 0.0 0.00 0.00 0.00 74 1013.3
20260510033336 63 126 0.0 0.0 0.00 0.00 0.00 74 1013.1
20260510032833 63 126 0.0 0.0 0.00 0.00 0.00 73 1012.9
20260510032330 64 126 0.0 0.0 0.00 0.00 0.00 73 1013.0
20260510031825 64 125 0.0 0.0 0.00 0.00 0.00 73 1012.8
20260510031321 64 126 0.0 0.0 0.00 0.00 0.00 72 1012.6
20260510030815 65 126 0.0 0.0 0.00 0.00 0.00 70 1012.6
20260510030312 65 125 0.0 0.0 0.00 0.00 0.00 70 1012.6
20260510025809 66 125 0.0 0.0 0.00 0.00 0.00 67 1012.5
20260510025307 66 123 0.0 0.0 0.00 0.00 0.00 67 1012.8
20260510024803 66 301 0.0 0.0 0.00 0.00 0.00 66 1012.7
20260510024300 66 136 0.0 0.0 0.00 0.00 0.00 67 1012.7
20260510023756 67 131 0.0 0.0 0.00 0.00 0.00 68 1012.6
20260510023253 67 123 0.0 0.0 0.00 0.00 0.00 67 1012.7
20260510022750 68 129 0.0 0.0 0.00 0.00 0.00 67 1013.3
20260510022250 68 161 1.0 2.0 0.00 0.00 0.00 65 1013.5
20260510021749 68 186 3.0 3.0 0.00 0.00 0.00 63 1013.0
20260510021247 66 129 0.0 0.0 0.00 0.00 0.00 75 1013.3
20260510020743 67 70 1.0 2.0 0.00 0.00 0.00 67 1013.5
20260510020242 67 116 0.0 0.0 0.00 0.00 0.00 69 1013.3
20260510015739 70 111 0.0 1.0 0.00 0.00 0.00 68 1013.1
20260510015235 72 119 0.0 0.0 0.00 0.00 0.00 55 1012.8
20260510014730 73 135 0.0 0.0 0.00 0.00 0.00 51 1013.3
20260510014228 75 241 4.0 6.0 0.00 0.00 0.00 44 1013.5
20260510013724 77 123 0.0 1.0 0.00 0.00 0.00 40 1013.4
20260510013219 77 189 5.0 7.0 0.00 0.00 0.00 36 1013.3
20260510012719 77 71 2.0 3.0 0.00 0.00 0.00 39 1012.8
20260510012215 76 127 1.0 2.0 0.00 0.00 0.00 38 1012.4
20260510011709 76 143 0.0 0.0 0.00 0.00 0.00 38 1012.3
20260510011205 77 138 0.0 0.0 0.00 0.00 0.00 37 1011.8
20260510010702 77 134 0.0 0.0 0.00 0.00 0.00 36 1011.3
20260510010158 77 136 0.0 0.0 0.00 0.00 0.00 36 1010.9
20260510005655 77 127 0.0 0.0 0.00 0.00 0.00 35 1010.9
20260510005151 78 128 0.0 0.0 0.00 0.00 0.00 34 1010.3
20260510004650 78 126 0.0 0.0 0.00 0.00 0.00 33 1010.2
20260510004148 78 116 2.0 2.0 0.00 0.00 0.00 32 1009.8
20260510003645 79 132 0.0 0.0 0.00 0.00 0.00 32 1009.7
20260510003140 79 123 0.0 0.0 0.00 0.00 0.00 33 1009.5
20260510002635 80 122 0.0 0.0 0.00 0.00 0.00 30 1009.2
20260510002132 80 125 0.0 0.0 0.00 0.00 0.00 29 1009.1
20260510001629 81 126 0.0 0.0 0.00 0.00 0.00 29 1009.2
20260510001128 81 131 0.0 0.0 0.00 0.00 0.00 28 1009.1
20260510000627 82 127 0.0 0.0 0.00 0.00 0.00 28 1009.2
20260510000126 82 124 0.0 0.0 0.00 0.00 0.00 28 1009.3
20260509235621 83 124 0.0 1.0 0.00 0.00 0.00 27 1009.0
20260509235118 84 126 0.0 0.0 0.00 0.00 0.00 26 1009.2
20260509234614 87 131 0.0 0.0 0.00 0.00 0.00 24 1008.9
20260509234113 87 62 0.0 1.0 0.00 0.00 0.00 23 1009.1
20260509233610 87 156 2.0 2.0 0.00 0.00 0.00 23 1009.1
20260509233107 86 157 3.0 3.0 0.00 0.00 0.00 23 1009.5
20260509232603 88 141 0.0 0.0 0.00 0.00 0.00 23 1009.5
20260509232100 89 226 3.0 5.0 0.00 0.00 0.00 21 1009.3
20260509231556 90 147 0.0 0.0 0.00 0.00 0.00 24 1009.6
20260509231054 89 134 0.0 0.0 0.00 0.00 0.00 22 1009.6
20260509230551 89 166 2.0 2.0 0.00 0.00 0.00 21 1009.6
20260509230048 89 233 1.0 2.0 0.00 0.00 0.00 21 1009.9
20260509225549 90 127 1.0 1.0 0.00 0.00 0.00 22 1009.9
20260509225044 89 138 0.0 1.0 0.00 0.00 0.00 22 1009.3
20260509224540 89 155 0.0 1.0 0.00 0.00 0.00 22 1009.7
20260509224037 88 133 1.0 1.0 0.00 0.00 0.00 23 1009.5
20260509223534 87 136 0.0 0.0 0.00 0.00 0.00 23 1009.3
20260509223032 89 112 1.0 1.0 0.00 0.00 0.00 22 1009.8
20260509222528 89 254 2.0 3.0 0.00 0.00 0.00 21 1009.5
20260509222023 91 152 1.0 2.0 0.00 0.00 0.00 22 1009.6
20260509221520 91 151 0.0 0.0 0.00 0.00 0.00 21 1009.5